Location: Berlise
(49.6641°N, 4.1077°E)
Time: 23:09:40
(UTC+00:00)

USA 308 - Pass Details

Date: 27 January 2021
Orbit: 568 x 578 km, 54.0° (Epoch: 28 February)

Event Time Altitude Azimuth Distance (km) Brightness Sun altitude
Exits shadow 06:28:54 - 263° (W) 1,937 5.0 -8.8°
Reaches altitude 10° 06:29:05 10° 264° (W) 1,867 5.0 -8.8°
Maximum altitude 06:33:16 58° 344° (NNW) 664 3.0 -8.2°
Drops below altitude 10° 06:37:29 10° 65° (ENE) 1,873 6.2 -7.5°
Sets 06:39:46 0° 69° (ENE) 2,773 7.3 -7.2°
